Kailua, HI (96734)

6:21 AM HST on February 14, 2016 (GMT -1000)
Kailua Beach | | Change Station
CLOSE
Current Station
Personal Weather Station
Location: Kailua, HI
Elevation: 10 ft
Nearby Weather Stations

Elev 10 ft 21.40 °N, 157.73 °W | Updated 7 minutes ago

Overcast
Overcast
75.4 °F
Feels Like 76 °F
N
4.0
Wind Variable Wind from East
Gusts 6.0 mph

Today
High -- | Low -- °F
--% Chance of Precip.
Yesterday
High -- | Low -- °F
Precip. -- in
Pressure 30.01 in
Visibility -9999.0 miles
Clouds Overcast 5500 ft
Heat Index 76 °F
Dew Point 70 °F
Humidity 82%
Rainfall 0.00 in
Snow Depth Not available.
7:02 AM 6:28 PM
Waxing Crescent, 43% visible
METAR PHNG 141557Z 10010G18KT 060V130 OVC055 24/18 A3003 RMK AO2 SLP162 T02390178 $
Pressure 30.01 in
Visibility -9999.0 miles
Clouds Overcast 5500 ft
Heat Index 76 °F
Dew Point 70 °F
Humidity 82%
Rainfall 0.00 in
Snow Depth Not available.
7:02 AM 6:28 PM
Waxing Crescent, 43% visible
METAR PHNG 141557Z 10010G18KT 060V130 OVC055 24/18 A3003 RMK AO2 SLP162 T02390178 $

10-Day Weather Forecast

Almanac

Astronomy

Feb. 14, 2016 Rise Set
Actual Time
Civil Twilight
Nautical Twilight
Astronomical Twilight
Moon
Length of Visible Light
Length of Day
Tomorrow will be .
, % of the Moon is Illuminated

Today's Extremes

State Highs State Lows

Community

WunderPhotos

Upload Photos

1,892,829 photos uploaded!

WunderBlog® & News

Nearby

Air Quality

  Air Quality AQ Index Pollutant
Not available.

Snow Depth

Station Depth Elevation

Earthquake Activity

City Distance Mag. Time & Date
Minimum magnitude displayed is 2.5.

Coastal Water Temperatures

Place Temperature

Stations

Nearby Weather Stations

Station Location Temp. Windchill Dew Point Humidity Wind Precip. Elev Updated Type
                   

Watches & Warnings

There are currently no watches in effect.